Theta_e
318 319 319 318 319 318 317 317 317 318 318 317 317 318 318 318 318 318 318 319 318 319 320 320 321 322 317 316 314 326 343 338 331 324 319 329 324 324 320 322 324 323 326 329 330 330 335
318 318 318 318 318 318 316 316 316 317 317 317 318 318 318 318 318 318 318 318 317 320 321 321 322 322 314 311 318 321 324 331 325 319 322 331 326 327 322 321 319 324 325 325 328 327 334
318 318 318 317 317 317 317 316 316 316 316 317 317 318 318 318 317 317 317 316 317 322 324 324 324 320 320 315 319 320 322 326 326 322 318 331 330 325 324 318 321 319 316 319 323 325 332
318 318 318 318 318 317 317 316 316 316 316 317 317 317 317 317 317 316 315 315 316 323 324 323 324 322 319 317 320 317 322 324 328 328 321 328 330 323 321 322 315 312 313 310 317 322 328
318 318 317 318 318 317 317 317 316 316 316 316 316 316 316 316 316 315 314 315 317 325 325 324 323 322 315 318 313 316 320 320 325 324 326 329 327 320 317 313 308 310 303 307 312 320 322
318 317 317 317 317 317 317 316 316 316 316 316 316 315 315 315 315 314 313 314 322 322 326 325 323 314 314 309 312 314 317 320 320 322 322 320 318 312 312 309 301 304 304 306 308 315 319
318 317 316 316 317 317 317 316 316 316 316 316 316 315 314 314 313 312 313 317 316 317 317 311 310 310 309 313 315 313 316 317 320 320 311 316 310 306 309 310 311 308 307 305 308 314 315
318 317 317 316 317 317 317 316 315 315 316 316 315 314 314 313 312 311 312 312 310 312 304 312 309 309 310 312 307 312 320 314 314 310 313 309 306 312 312 312 310 309 306 306 310 312 313
318 318 318 317 317 317 316 315 315 315 315 315 314 314 313 312 311 312 314 313 318 316 305 308 309 308 308 310 307 308 314 315 311 307 310 306 308 312 310 309 307 308 306 306 306 310 312
319 318 318 317 317 316 316 315 315 315 315 314 314 313 312 310 310 316 314 317 319 315 300 303 304 306 307 308 304 310 311 310 310 307 308 309 313 310 308 306 308 303 309 308 307 306 301
319 318 317 317 316 316 315 315 315 315 314 314 313 313 311 309 311 314 315 319 317 312 290 303 304 311 308 305 306 306 311 309 303 306 308 305 306 307 306 307 310 306 311 308 307 305 304
319 317 316 316 316 315 315 314 315 314 314 313 312 311 310 315 314 318 318 318 314 297 290 299 304 302 302 304 304 306 306 309 309 304 306 306 311 310 308 310 310 311 308 307 307 305 298
318 317 316 315 316 315 315 314 314 313 312 312 311 309 309 316 313 318 318 313 298 293 304 298 299 302 301 301 302 302 302 301 299 296 297 301 303 308 311 307 309 309 304 296 295 296 295
317 317 315 316 315 315 315 314 314 313 312 311 308 307 314 317 319 318 315 305 294 301 300 303 300 300 298 302 301 302 300 298 303 302 298 296 296 302 307 307 305 305 304 298 292 294 297
317 315 315 315 315 314 314 313 313 312 312 310 307 317 315 319 319 317 308 299 299 300 302 301 301 298 299 301 299 300 299 299 302 304 297 296 296 305 307 307 308 305 302 307 300 303 299
316 315 315 315 315 313 313 314 313 312 311 309 311 316 315 319 320 314 305 299 302 304 303 302 297 300 297 300 298 298 299 302 301 304 305 299 293 302 305 308 307 305 307 300 302 294 294
315 315 314 315 313 313 314 314 313 312 310 309 313 311 316 319 318 310 301 302 303 305 304 300 299 298 299 298 299 298 299 302 303 302 303 300 297 296 302 301 301 302 302 303 304 302 296
315 315 315 314 313 314 315 314 312 310 309 312 316 306 316 318 307 309 302 302 299 303 305 302 301 300 298 299 297 297 297 300 304 303 298 302 298 293 296 303 306 305 303 303 300 299 302
315 315 315 314 314 315 315 314 312 310 310 310 311 311 317 316 301 302 303 302 302 301 301 301 299 301 301 298 294 297 298 303 303 301 298 301 296 291 293 297 302 299 301 303 303 303 301
314 314 314 314 314 315 315 313 312 311 310 311 312 304 310 310 308 303 301 299 298 301 301 300 299 301 298 297 299 295 296 300 302 301 305 302 296 293 290 295 298 297 298 301 300 298 299
314 314 313 314 314 315 315 314 313 311 310 313 311 304 306 300 301 302 302 300 298 296 301 301 298 296 295 293 294 294 297 298 300 303 301 299 292 294 296 297 298 297 297 298 298 301 298
313 313 313 314 314 315 315 314 314 312 310 314 306 306 307 303 303 300 298 297 295 296 297 297 295 297 297 293 294 293 295 296 296 299 299 301 292 295 292 296 296 295 297 297 298 300 302
313 313 312 313 314 314 314 315 314 312 311 312 313 314 309 301 301 300 297 297 296 297 300 299 297 296 295 296 299 300 300 300 299 297 297 297 295 292 288 294 294 290 296 297 298 300 300
313 313 312 313 313 314 314 315 315 314 312 315 313 310 307 300 300 298 297 298 298 298 296 299 300 296 300 305 304 302 301 299 299 298 299 295 294 292 289 291 282 295 301 301 298 299 300
312 312 312 312 313 313 314 314 315 315 313 316 315 312 308 303 303 301 299 299 301 301 300 299 300 302 305 301 295 293 294 294 296 298 297 298 296 290 285 286 291 294 298 298 297 297 302
312 312 312 312 313 313 314 314 315 315 314 317 316 318 312 305 302 304 301 301 298 298 299 299 304 306 303 298 293 288 287 290 290 293 298 297 297 294 289 283 282 293 300 303 302 292 303
312 312 312 312 313 313 314 314 315 316 315 314 316 320 314 306 307 307 302 301 303 300 297 299 301 301 303 294 291 289 288 291 286 286 289 292 293 289 288 286 289 298 299 302 289 293 306
311 311 311 312 312 313 313 313 315 316 315 315 316 320 313 309 308 310 308 305 305 304 297 302 300 300 298 293 290 289 288 291 287 291 290 289 289 289 290 287 284 302 300 294 301 305 305
311 311 311 311 312 313 313 313 314 315 315 314 315 320 319 311 309 315 313 313 310 308 305 303 300 301 301 296 294 292 289 291 289 286 294 288 290 286 291 292 301 302 300 303 303 302 303
Wind_Speed
15 16 17 17 17 17 19 20 20 20 21 23 23 22 22 23 24 24 23 21 19 18 14 11 8 5 6 9 6 14 13 9 10 13 18 19 21 18 18 18 19 19 16 20 8 6 11
14 15 15 16 16 17 18 19 20 20 21 22 23 23 22 22 23 23 22 20 20 16 11 8 7 6 7 12 4 1 3 12 13 17 18 21 16 16 15 19 18 15 18 20 12 12 6
15 15 15 16 16 17 18 19 20 20 21 23 23 23 23 22 23 23 22 20 19 16 10 7 8 9 13 11 3 4 7 11 16 18 19 20 19 16 16 15 15 16 21 14 18 17 12
16 16 17 17 16 17 18 19 20 20 20 22 23 23 23 24 25 23 21 19 17 14 8 2 6 9 10 3 7 6 7 8 11 15 21 19 16 15 17 12 20 14 19 18 17 19 17
16 16 17 17 17 17 18 18 19 20 21 22 24 24 24 25 26 24 20 19 15 13 9 7 8 10 8 6 8 2 8 9 11 16 18 14 13 16 11 16 15 16 16 22 21 20 19
15 15 17 17 17 17 18 18 19 20 20 22 25 25 26 26 27 25 25 14 4 9 10 11 12 12 10 5 4 2 4 9 11 15 9 11 11 14 14 15 16 16 18 19 19 18 20
17 17 17 18 18 18 18 19 20 21 21 22 24 25 26 26 28 24 16 4 6 7 11 14 2 10 2 2 6 4 6 11 12 11 14 17 13 16 19 21 21 21 19 18 17 19 20
16 17 16 17 17 17 18 19 19 19 21 22 25 25 25 26 28 28 11 8 8 7 10 10 8 9 3 7 5 6 7 10 12 13 16 14 20 18 19 21 21 23 21 21 15 19 20
15 16 15 16 16 17 18 19 19 20 20 21 24 25 26 27 28 15 11 5 7 8 8 14 10 12 5 7 12 11 7 12 11 16 18 20 15 23 21 19 20 19 21 19 17 12 20
14 14 14 15 16 17 18 19 21 21 22 21 23 24 25 26 9 8 4 5 7 2 7 14 10 4 5 7 7 5 4 10 10 16 18 19 20 22 21 22 19 20 18 20 19 16 14
13 13 14 15 16 16 17 19 20 21 22 23 24 24 24 11 14 7 7 8 7 5 7 13 10 5 0 12 8 9 1 9 13 13 10 15 20 19 23 15 20 20 19 16 18 18 19
13 13 15 16 17 17 18 19 20 21 22 23 25 24 22 8 9 11 8 9 6 8 6 7 6 8 10 9 6 5 6 8 9 10 14 15 18 16 18 20 17 16 20 18 16 16 17
13 14 15 16 17 18 19 20 21 21 22 23 25 25 16 10 8 9 9 8 8 10 9 9 5 5 9 7 8 5 9 12 10 10 14 16 18 18 17 14 20 19 15 12 16 16 16
13 14 15 16 16 18 19 20 21 22 23 24 26 25 10 11 8 8 8 9 9 6 14 7 2 1 6 9 5 9 6 10 11 14 13 15 13 21 18 20 17 21 20 15 20 15 18
14 15 15 16 17 17 20 20 21 22 23 23 29 10 11 7 4 6 8 10 7 13 16 10 10 8 10 11 4 12 6 13 16 14 9 11 18 21 8 19 17 22 20 21 25 22 19
13 15 17 16 17 19 20 20 21 23 24 21 9 11 4 7 4 7 8 10 9 14 11 9 9 10 11 11 10 6 8 8 5 9 8 10 18 20 18 12 13 18 19 21 16 22 23
13 15 16 17 18 19 19 21 21 23 26 27 6 7 8 8 5 8 7 5 9 9 9 10 12 11 13 14 15 13 9 10 5 10 1 10 14 21 20 17 17 16 17 22 15 16 18
14 14 15 16 18 19 19 19 20 20 27 13 8 3 7 5 7 2 10 8 3 9 6 5 4 6 7 10 13 16 14 15 13 10 15 10 12 16 19 23 15 15 18 22 15 18 17
15 15 16 16 17 18 18 18 18 17 15 9 7 4 5 10 4 5 4 7 8 11 9 12 9 10 11 11 8 8 11 13 13 11 6 11 12 12 17 18 22 15 23 24 22 22 19
15 17 17 17 16 16 17 17 18 16 12 8 8 2 5 6 9 10 4 7 5 7 9 8 6 9 8 10 8 8 9 7 4 5 10 11 13 17 16 15 15 15 20 20 24 17 18
16 17 17 17 16 16 16 18 19 19 16 6 4 8 5 9 11 10 11 11 11 8 10 8 2 4 7 6 12 12 10 10 12 8 8 8 16 20 22 27 20 21 19 15 22 21 21
16 16 17 16 15 16 15 17 19 19 23 3 7 6 7 7 5 6 5 6 7 9 6 6 6 11 10 4 9 16 14 14 9 10 7 9 10 19 20 22 21 24 22 20 22 29 23
16 16 17 15 15 15 15 17 18 19 17 5 3 1 4 5 7 5 7 9 6 4 8 2 8 8 10 10 10 13 14 15 17 11 13 6 5 8 17 18 21 22 24 19 18 18 13
14 15 16 14 14 14 15 15 16 18 16 5 4 5 2 4 6 7 3 7 4 4 5 7 4 6 8 15 17 16 18 19 20 20 15 10 6 1 8 11 14 16 18 20 21 20 19
14 15 14 13 13 12 13 13 14 15 16 5 3 5 6 8 9 7 5 4 7 7 10 4 6 9 10 13 9 11 6 11 16 18 18 16 12 6 4 10 17 18 14 8 13 18 15
13 14 13 12 11 11 11 10 11 13 14 8 7 7 4 3 9 1 4 3 6 9 2 2 6 7 10 5 4 5 4 8 4 6 10 14 13 8 9 8 10 15 11 11 11 10 8
12 13 12 11 10 10 9 8 9 10 12 7 4 5 6 5 7 7 7 6 4 3 5 5 8 3 6 5 3 3 4 2 5 7 9 7 7 14 11 12 12 12 1 9 10 6 10
11 11 11 10 9 8 6 5 6 8 10 7 4 4 6 5 5 8 4 7 3 2 3 8 2 1 4 5 4 5 4 4 4 7 9 6 6 5 10 13 16 14 5 11 11 15 15
11 10 10 9 8 7 3 3 4 6 8 7 4 2 4 5 6 10 4 3 4 3 3 2 5 5 3 2 3 2 2 3 5 3 9 2 4 5 6 5 14 15 17 18 15 17 20
Wind_Direction
0 358 356 355 352 351 350 348 346 343 340 338 338 336 337 335 333 331 329 324 322 315 303 288 273 246 233 219 249 140 164 176 196 202 219 231 217 212 221 234 233 251 246 280 180 221 256
354 352 350 349 347 347 347 346 344 342 338 336 335 334 333 333 330 329 327 323 321 319 308 279 244 198 244 249 62 139 230 166 203 198 217 236 215 220 229 244 252 240 236 258 260 249 194
347 345 344 345 345 344 342 341 341 339 337 334 333 332 331 331 329 328 324 322 317 316 310 274 212 227 252 280 324 279 216 204 203 197 213 234 232 234 235 243 268 274 266 267 251 265 194
343 343 343 342 341 338 337 337 338 337 336 331 331 332 330 328 326 326 322 318 307 300 303 255 204 234 279 37 296 230 210 205 183 197 220 225 237 246 242 257 265 264 250 257 246 229 247
342 341 337 337 337 336 335 335 336 336 335 332 329 331 330 328 325 326 322 312 293 285 271 245 236 228 244 136 218 143 240 196 193 195 220 242 222 244 244 253 255 228 242 236 250 219 231
334 333 337 337 337 333 332 334 335 334 332 331 328 330 330 329 324 326 323 279 262 293 224 234 256 259 231 187 71 303 207 267 194 197 205 235 217 229 228 230 227 233 226 244 235 243 196
332 335 336 338 335 332 331 333 333 332 332 331 327 328 327 327 322 323 331 293 207 196 237 266 254 256 111 69 217 220 164 219 197 183 209 206 213 217 226 232 239 266 274 233 238 230 234
331 330 333 332 331 329 328 329 328 328 330 329 325 325 326 324 320 315 282 284 34 329 295 230 256 263 290 304 217 152 202 206 192 205 212 206 228 227 232 237 232 249 267 275 260 246 219
328 326 329 328 328 328 327 326 325 324 326 326 323 322 324 323 318 291 257 12 315 304 265 237 203 238 184 230 256 119 233 221 220 224 216 228 224 216 238 239 244 232 250 260 271 276 255
325 326 327 329 330 329 328 328 326 325 325 323 321 320 322 326 293 265 228 348 310 343 268 154 179 209 198 243 241 102 277 294 233 249 221 237 233 262 208 239 240 244 243 251 269 270 262
325 329 332 330 331 330 327 326 324 323 322 322 319 318 319 318 312 288 355 313 324 235 270 155 114 84 126 230 102 170 104 269 260 251 241 249 238 233 253 239 230 253 255 256 250 266 268
332 338 334 335 335 331 328 325 325 323 321 321 317 317 326 259 212 284 310 311 246 234 230 128 119 179 193 209 215 119 218 219 310 292 285 275 282 254 244 254 248 250 251 265 263 240 249
341 338 336 338 335 331 329 326 325 323 322 319 316 315 314 303 307 337 312 271 228 249 151 140 198 162 233 203 187 222 241 212 237 221 232 235 245 263 265 258 241 229 242 231 238 239 240
347 341 338 338 334 329 329 326 325 325 322 320 316 312 268 254 282 309 287 251 257 333 72 74 334 355 278 310 206 239 226 267 260 270 291 287 250 212 222 237 247 232 222 232 230 234 238
346 343 339 336 331 331 331 327 328 326 323 325 310 258 234 229 318 285 264 234 11 11 13 15 334 259 261 243 178 311 295 292 284 346 254 280 261 277 284 215 218 248 231 235 257 257 248
349 342 337 334 333 337 330 330 329 327 324 328 311 291 123 317 315 256 247 263 87 37 7 339 315 319 309 307 178 217 251 317 321 41 338 308 307 293 295 219 244 232 256 227 230 250 259
348 340 335 334 337 333 334 332 332 330 327 322 251 234 51 336 239 241 263 60 40 48 11 351 343 321 320 315 314 308 301 296 16 299 157 295 287 282 292 276 216 220 246 258 273 236 255
344 338 332 334 334 333 335 337 334 337 333 327 289 302 15 297 255 274 46 19 313 26 22 343 296 297 306 320 301 297 289 313 28 332 311 280 289 286 270 273 263 247 259 243 246 239 266
341 337 336 335 333 337 339 340 333 339 357 318 278 35 37 312 317 49 94 96 50 8 16 14 334 15 341 316 317 296 307 323 16 357 354 316 264 271 258 272 269 230 233 255 249 250 251
339 338 339 336 338 341 338 338 332 332 339 316 282 332 85 47 16 352 341 59 53 69 64 349 326 320 340 311 263 262 278 283 34 293 350 316 275 276 279 258 342 292 239 252 250 243 243
339 340 340 339 341 342 342 340 334 329 332 296 317 51 337 7 33 40 8 6 41 7 2 9 200 15 1 324 333 300 331 325 304 311 296 254 264 267 275 287 295 286 286 288 257 251 249
339 341 339 343 343 343 346 341 334 333 330 274 344 341 92 52 70 61 61 43 19 357 333 7 347 351 336 313 301 310 300 299 303 295 221 304 286 273 258 271 287 275 264 264 279 243 249
339 340 340 344 345 346 351 344 338 342 332 41 23 296 288 137 26 29 38 17 355 339 297 32 349 342 315 340 318 301 295 282 264 247 267 246 262 284 261 268 283 259 254 245 262 273 276
339 340 340 340 345 353 350 349 343 345 352 1 24 302 41 96 75 48 7 290 316 337 307 299 330 295 320 325 300 284 266 262 256 266 248 206 214 230 275 296 251 263 260 263 252 261 259
340 337 337 337 347 356 347 350 344 345 347 352 12 331 353 41 41 62 17 346 341 273 230 338 21 15 332 307 297 289 257 267 252 241 246 240 201 227 235 265 272 293 247 342 327 242 238
337 336 334 333 346 352 346 346 346 337 340 308 55 322 338 344 46 322 298 63 338 3 17 93 39 22 346 320 284 300 341 359 356 304 247 270 267 210 227 241 267 261 50 5 346 265 289
333 335 329 331 343 349 348 347 340 329 339 327 68 354 289 315 75 8 37 8 332 28 301 348 344 345 19 8 323 342 353 309 339 311 336 304 266 238 239 249 252 270 44 333 258 302 351
329 331 324 329 340 345 352 343 323 319 332 323 71 20 332 334 31 21 49 2 355 118 356 360 274 317 21 18 357 10 337 4 299 305 319 308 314 246 226 244 255 11 187 222 351 338 321
326 326 317 326 335 333 359 332 305 302 312 329 308 86 340 274 350 330 25 23 7 50 341 319 28 17 78 81 42 343 313 319 319 310 349 323 7 311 297 316 334 354 333 328 329 316 307